Timeline UpdatesTrip UpdatesNews PostsPvt Posts♥♥Travel TipsAdmin PostsConv PostsFollowed PostsChat RequestsBlog PostsPNR Posts

Disclaimer
Search
 
 
Fri Oct 24, 2014 23:32:32 ISTHomeTrainsΣChainsAtlasPNRForumGalleryNewsFAQTripsMembersLoginFeedback
No Recent News for this Train
Other Trains in the News **new
Latest...
..
Mon Dec 30, 2013 (12:01AM)
⇐ Return Journey: Train# 19037

19038/Avadh Express

Time-Table HAS CHANGED.
Sep 01 2014 (11:38PM)
Change Departure Station:
Change Arrival Station:
Post a Train Travel TipPost a Train Travel Tip **new
Post a Comment/Question/Picture/VideoPost a Comment/Question/Picture/Video
Pantry/Catering
✓ Pantry Car Avbl
✓ Catering Avbl
Loco/Rake Reversals
LJN/Lucknow Junction NER (6);
RSA - Rake Sharing
19039/19040 Avadh Express.
Rake/Coach Composition
ENGINE-SLR-GEN-GEN-A1-B1-B2-PC-S1-S2-S3-S4-S5-S6-S7-S8-S9-S10-S11-S12-S13-S14-S15-SLR; Total 23 Coaches.
Loco
GKP-LJN: GD WDM-3A LJN-BDTS: BRC WAP-4
News    PNR    Forum    Time-Table    Availability    Fare Chart    Map    Arr/Dep History    Trips    Gallery    ΣChains    X/O    Timeline    
Travel Time: 24h 8m    44 halts    Distance: 1083 km    Avg Speed: 44 km/hr
Type: Mail/Express
Zone: WR/Western
Departs @ 13:20 (Avg 2m late)
Platform# 7
 M W FS
Gorakhpur Junction/GKP 
Arrives @ 13:28 +1 night (Avg 49m late)
Platform# ???
S T T S
Suwasra/SVA 

44 halts. 161 intermediate Stations between Gorakhpur Junction and Suwasra

Show ALL intermediate Stations  Show Old Time-Table

#TrkCodeStation NameX/OArrivesAvgDepartsAvgHaltPFDay#KmSpeedElevZoneAddress
1%==%GKPGorakhpur Junction (10)»  -13:20+2710.04084mNERGorakhpur 273001, Uttar Pradesh
2%==%SWASahjanwa (2)X  13:45 13:46+1613:47 13:48+192m--117.15080mNERGorakhpur - 273209, Uttar Pradesh
3%==%MHHMaghar (3)X  13:58+2014:00+202m--125.45183mNERNH 28. Distt- SantKabirNagar- 272173, Uttar Pradesh
4%==%KLDKhalilabad (3)X  14:09 14:10+2214:11 14:12+222m--133.96386mNERKhalilabad- 272175, Uttar Pradesh
5%==%BSTBasti (4)  14:40+2314:45+235m2163.58090mNERBasti 272001, Uttar Pradesh
6%==%BVBabhnan (2)  15:08+2715:10+282m--194.247101mNERDistrict- Basti, Uttar Pradesh
7%==%MSWMaskanwa (2)X  15:30+2415:32+262m--1109.953103mNERChhapaiya Rd, Uttar Pradesh
8%==%MURMankapur Junction (5)X  15:50 15:48+2715:52 15:50+272m21124.067104mNERDistrict Gonda, Uttar Pradesh
9%==/GDGonda Junction (3)X  16:20 16:15+3116:35 16:30+3015m11151.972110mNERGonda 271001, Uttar Pradesh
10/==/CLJColonelGanj (2)X  16:58 16:54+4717:00 16:56+472m--1180.865108mNERGonda, Uttar Pradesh
11/==/JLDJarwal Road (2)X  17:16 17:12+5017:18 17:14+512m--1198.054112mNERBehraich, Uttar Pradesh
12/==/BUWBurhwal Junction (3)X  17:40 17:32+5117:42 17:34+532m--1214.141119mNERBarabanki, Uttar Pradesh
13/==/BBKBarabanki Junction (4)X  18:14+4518:16+472m21241.245122mNRPin-225001, Uttar Pradesh
14/--/GTNRGomti Nagar (3)  18:43+4818:45+482m11261.517117mNERLucknow, Uttar Pradesh
15/--/BNZBadshahnagar (2)X  19:00+4319:05+425m11265.810116mNERLucknow, Uttar Pradesh
16/--/LCLucknow City (3)  19:28 19:41+2819:30 19:43+312m11272.19127mNERLucknow, Uttar Pradesh
17/--/LJNLucknow Junction NER (6)XO20:15+1320:55+640m41276.861126mNERLucknow, Uttar Pradesh
18/==/ONUnnao Junction (5)X  21:48+1521:50+162m--1330.726129mNRUnnao, Uttar Pradesh
19/==/CNBKanpur Central (10)  22:30+1522:35 22:37+195 7m--1348.177128mNCRKANPUR-208 001, Uttar Pradesh
20/==/PHDPhaphund (4)X  23:32 23:42+3923:34 23:44+452m--1431.350146mNCRdist. Auraiya, Uttar Pradesh
21/==/BNTBharthana (3)X  00:22 00:28+3400:24 00:30+412m--2467.660147mNCRBharthana, Uttar Pradesh
22/==/ETWEtawah (5)X  00:46 00:50+3900:48 00:55+422 5m22487.479154mNCRDistt. Etawah, Uttar Pradesh
23/==/SKBShikohabad Junction (4)X  01:26 01:37+5501:28 01:42+1:002 5m32542.843166mNCRDistrict Firozabad, Uttar Pradesh
24/==/FZDFirozabad (4)XO  01:53 02:10+5101:55 02:15+542 5m32562.722164mNCRFirozabad, Uttar Pradesh
25/==/TDLTundla Junction (5)  03:05 03:00+3303:10 03:05+375m22579.325167mNCRDistt.Firozabad, Uttar Pradesh
26/--/AFAgra Fort (3)  04:00+4004:10+4510m12602.216170mNCRRakabganj, Uttar Pradesh
27/=-/IDHIdgah Agra Junction (3)  04:18+4804:20+482m--2604.334168mNCRAgra, Uttar Pradesh
28/--/KLBKiraoli (1)X  05:08 04:58+3805:10 05:00+432m12626.034174mNCRKiraoli, Uttar Pradesh
29/--/FTSFatehpur Sikri (2)  05:22+3605:24+372m--2638.457176mNCRAgra, Uttar Pradesh
30/--/RBSRupbas (2)  05:39+3705:41+382m--2652.626178mNCRJAGNER ROAD, Rajasthan
31/--/BXNBayana Junction (3)X  07:00+1707:05+195m--2686.799198mWCRBayana, Rajasthan
32/==/HANHindaun City (2)  07:25+2607:27+262m--2719.668230mWCRKarauli, Rajasthan
33/==/SMBJShri Mahabirji (3)X  07:36+2707:38+272m--2729.876240mWCRKarauli, Rajasthan
34/==/GGCGangapur City (3)  08:05+2808:10+305m--2763.877270mWCRGangapur, Rajasthan
35/==/SWMSawai Madhopur Junction (4)  09:00+3109:05+325m--2827.891266mWCRSawai Madhopur, Rajasthan
36/==/IDGIndargarh Sumerganj Mandi (2)  09:32 09:29+3809:33 09:31+381 2m--2864.055247mWCRIndargarh, Rajasthan
37/==/LKELakheri (3)X  09:46 09:43+3709:47 09:45+371 2m--2875.056228mWCRBundi, Rajasthan
38/==/KOTAKota Junction (5)X  10:50+3310:55+385m22935.643256mWCRKota, Rajasthan
39/==/DKNTDakaniya Talav (2)  11:08+4211:10+442m22944.974278mWCRKota, Rajasthan
40/==/MKXMorak (2)X  11:53+4611:55+462m--2997.849337mWCRMorak, Rajasthan
41/==/RMARamganj Mandi Junction (3)  12:06+4312:08+442m--21006.862358mWCRRamganj Mandi, Rajasthan
42/==/JHWJhalawar Road (3)X  12:20+4412:22+442m--21019.271361mWCRJhalawar City, Rajasthan
43/==/BWMBhawani Mandi (3)X  12:36+4412:38+452m--21035.776384mWCRBhawani Mandi, Madhya Pradesh
44/==/GOHGaroth (2)X  12:56+4812:58+482m121058.354441mWCRMadhya Pradesh 458880, Madhya Pradesh
45/==/SGZShamgarh (3)  13:10+5013:15+505m--21069.262463mWCRMandsaur, Madhya Pradesh
46/==/SVASuwasra (2)•  13:28+4913:30+502m--21082.651450mWCRSuwasra, Madhya Pradesh
47/==/CMUChau Mahla (3)  13:43 13:48+4713:45 13:50+482m121098.025426mWCRJhalawar, Rajasthan
48/==/VMAVikramgarh Alot (2)X  14:43+1914:45+282m121119.843443mWCRKota Division, Madhya Pradesh
49/==/MEPMahidpur RoadX  15:18+2315:20+282m--21143.741493mWCRGogapur, Madhya Pradesh
50/==/NADNagda Junction (4)X  15:45+2915:47+312m--21160.864468mWRNagda, Madhya Pradesh
51/==/KUHKhachrod (2)  15:58 16:00+3416:00 16:02+342m--21174.659497mWRUjjain, Madhya Pradesh
52/==/RTMRatlam Junction (7)  16:30+3516:50+3520m421202.271495mWRRatlam, Madhya Pradesh
53/==/BMIBamnia (2)  17:25 17:28+4117:27 17:30+412m--21246.976392mWRBamnia, Madhya Pradesh
54/==/MGNMeghnagar (3)  17:55 17:58+4317:57 18:00+432m--21282.583317mWRJhabua, Madhya Pradesh
55/==/DHDDahod (3)  18:20 18:24+4418:22 18:26+442m221315.649313mWRDahod, Gujarat
56/==/GDAGodhra Junction (3)X  19:55+2519:57+252m--21388.776122mWRGodhra, Gujarat
57/==/BRCVadodara Junction (7)X  20:55+3221:05+3210m121462.68936mWRVadodara 390005, Gujarat
58/==/AKVAnkleshwar Junction (4)X  21:59+3622:01+352m221542.43619mWRAnkleshwar, Gujarat
59/==/STSurat (4)X  23:25+2023:30+215m221592.46219mWRSurat 395001, Gujarat
60/==/BLValsad (3)X  00:36+3000:37+311m331661.17915mWRValsad, Gujarat
61/==/VAPIVapi (3)X  00:57+3600:59+372m231687.36827mWRVapi, Gujarat
62/==/BORBoisar (3)X  02:01+3902:03+392m331757.64517mWRBoisar Tel.no-02525-266626, Maharashtra
63/==/BVIMumbai Borivali (8)  03:35+903:40+95m631825.83419mWRMumbai - 400092, Maharashtra
64/==/ADHMumbai Andheri (9)O  04:02+1004:04+122m--31838.41212mWRMumbai, Maharashtra
65/==/BDTSMumbai Bandra Terminus (5)  04:35+7-231844.6-4mWRMumbai 400050, Maharashtra
Scroll to Top
Scroll to Bottom